Weather History for Ft Lauderdale, FL

Change the Weather History Date:

Tuesday, February 18, 2014

  Actual Average Record
Temperature  
Mean Temperature 73 °F 71 °F  
Max Temperature 80 °F 78 °F 87 °F (1959)
Min Temperature 65 °F 64 °F 38 °F (1996)
Degree Days  
Heating Degree Days 0 1  
Month to date heating degree days 5 18  
Since 1 July heating degree days 80 98  
Cooling Degree Days 8 7  
Month to date cooling degree days 140 117  
Year to date cooling degree days 265 287  
Growing Degree Days 23 (Base 50)    
Moisture  
Dew Point 60 °F    
Average Humidity 66    
Maximum Humidity 81    
Minimum Humidity 51    
Precipitation  
Precipitation 0.00 in 0.10 in 2.15 in (1920)
Month to date precipitation 1.24 2.04  
Year to date precipitation 5.40 5.67  
Snow  
Snow 0.00 in - - ()
Month to date snowfall 0.0  
Since 1 July snowfall 0.0  
Snow Depth 0.00 in    
Sea Level Pressure  
Sea Level Pressure 30.18 in    
Wind  
Wind Speed 8 mph (East)    
Max Wind Speed 15 mph    
Max Gust Speed 20 mph    
Visibility 10 miles    
Events      
T = Trace of Precipitation, MM = Missing Value Source: NWS Daily Summary

Daily Weather History Graph

Daily Weather History Graph

Search for Another Location

Airport:

Trip Planner

Search our weather history database for the weather conditions in past years. The results will help you decide how hot, cold, wet, or windy it might be!

Date:

Astronomy

Feb. 18, 2014 Rise Set
Actual Time 6:53 AM EST 6:15 PM EST
Civil Twilight 6:30 AM EST 6:39 PM EST
Nautical Twilight 6:03 AM EST 7:06 PM EST
Astronomical Twilight 5:36 AM EST 7:33 PM EST
Moon 9:40 PM EST (2/18) 8:49 AM EST (2/18)
Length of Visible Light 12h 08m
Length of Day
11h 21m
Waning Gibbous, 87% of the Moon is Illuminated
Feb 18
Waning Gibbous
Feb 22
Last Quarter
Mar 1
New
Mar 8
First Quarter
Mar 16
Full

Hourly Weather History & Observations

Time (EST) Temp. Heat Index Dew Point Humidity Pressure Visibility Wind Dir Wind Speed Gust Speed Precip Events Conditions
12:53 AM 71.1 °F - 59.0 °F 66% 30.17 in 10.0 mi SE 8.1 mph - N/A   Partly Cloudy
1:53 AM 71.1 °F - 59.0 °F 66% 30.17 in 10.0 mi SE 6.9 mph - N/A   Partly Cloudy
2:53 AM 68.0 °F - 59.0 °F 73% 30.17 in 10.0 mi East 3.5 mph - N/A   Partly Cloudy
3:53 AM 66.9 °F - 60.1 °F 79% 30.17 in 10.0 mi Calm Calm - N/A   Partly Cloudy
4:53 AM 68.0 °F - 60.1 °F 76% 30.16 in 10.0 mi SE 3.5 mph - N/A   Partly Cloudy
5:53 AM 68.0 °F - 60.1 °F 76% 30.17 in 10.0 mi SE 3.5 mph - N/A   Partly Cloudy
6:53 AM 69.1 °F - 61.0 °F 75% 30.18 in 10.0 mi SE 5.8 mph - N/A   Scattered Clouds
7:53 AM 72.0 °F - 62.1 °F 71% 30.20 in 10.0 mi East 5.8 mph - N/A   Partly Cloudy
8:53 AM 75.0 °F - 60.1 °F 60% 30.22 in 10.0 mi East 8.1 mph - N/A   Clear
9:53 AM 77.0 °F - 61.0 °F 58% 30.23 in 10.0 mi ESE 11.5 mph - N/A   Partly Cloudy
10:53 AM 78.1 °F - 62.1 °F 58% 30.23 in 10.0 mi East 10.4 mph - N/A   Scattered Clouds
11:53 AM 79.0 °F - 61.0 °F 54% 30.23 in 10.0 mi East 6.9 mph - N/A   Scattered Clouds
12:53 PM 79.0 °F - 60.1 °F 52% 30.21 in 10.0 mi East 5.8 mph - N/A   Partly Cloudy
1:53 PM 78.1 °F - 59.0 °F 52% 30.19 in 10.0 mi East 8.1 mph 17.3 mph N/A   Partly Cloudy
2:53 PM 80.1 °F 80.9 °F 60.1 °F 50% 30.17 in 10.0 mi ENE 10.4 mph - N/A   Partly Cloudy
3:53 PM 78.1 °F - 59.0 °F 52% 30.17 in 10.0 mi East 10.4 mph - N/A   Partly Cloudy
4:53 PM 77.0 °F - 59.0 °F 54% 30.15 in 10.0 mi ENE 11.5 mph - N/A   Partly Cloudy
5:53 PM 75.0 °F - 57.9 °F 55% 30.16 in 10.0 mi East 10.4 mph - N/A   Partly Cloudy
6:53 PM 73.9 °F - 57.9 °F 57% 30.17 in 10.0 mi East 9.2 mph - N/A   Clear
7:53 PM 73.0 °F - 59.0 °F 61% 30.17 in 10.0 mi East 10.4 mph - N/A   Partly Cloudy
8:53 PM 73.0 °F - 61.0 °F 66% 30.19 in 10.0 mi East 11.5 mph - N/A   Partly Cloudy
9:53 PM 73.9 °F - 61.0 °F 64% 30.19 in 10.0 mi East 11.5 mph - N/A   Partly Cloudy
10:53 PM 73.0 °F - 61.0 °F 66% 30.19 in 10.0 mi East 10.4 mph - N/A   Scattered Clouds
11:53 PM 73.0 °F - 60.1 °F 64% 30.17 in 10.0 mi ESE 11.5 mph - N/A   Scattered Clouds